| time (UTC) | temp F | wind direction | speed MPH | gust MPH | rain 1hr in | rain 24hr in | rain mn in | humidity % | barometer mb |
| 20260507131603 | 61 | 5 | 1.0 | 12.0 | 0.00 | 0.00 | 0.00 | 33 | 1016.6 |
| 20260507124604 | 58 | 53 | 2.0 | 8.0 | 0.00 | 0.00 | 0.00 | 36 | 1016.5 |
| 20260507124105 | 59 | 332 | 3.0 | 8.0 | 0.00 | 0.00 | 0.00 | 36 | 1016.6 |
| 20260507123104 | 59 | 79 | 1.0 | 9.0 | 0.00 | 0.00 | 0.00 | 37 | 1016.5 |
| 20260507121103 | 59 | 190 | 6.0 | 13.0 | 0.00 | 0.00 | 0.00 | 39 | 1016.3 |
| 20260507120604 | 58 | 117 | 1.0 | 12.0 | 0.00 | 0.00 | 0.00 | 39 | 1016.3 |
| 20260507120115 | 57 | 313 | 10.0 | 12.0 | 0.00 | 0.00 | 0.00 | 39 | 1016.4 |
| 20260507114604 | 57 | 298 | 7.0 | 9.0 | 0.00 | 0.00 | 0.00 | 40 | 1016.4 |
| 20260507113604 | 57 | 296 | 2.0 | 13.0 | 0.00 | 0.00 | 0.00 | 39 | 1016.5 |
| 20260507111604 | 57 | 288 | 2.0 | 6.0 | 0.00 | 0.00 | 0.00 | 39 | 1016.7 |
| 20260507104604 | 56 | 274 | 6.0 | 8.0 | 0.00 | 0.00 | 0.00 | 39 | 1016.4 |
| 20260507103604 | 57 | 239 | 5.0 | 6.0 | 0.00 | 0.00 | 0.00 | 38 | 1016.4 |
| 20260507100604 | 57 | 273 | 5.0 | 12.0 | 0.00 | 0.00 | 0.00 | 40 | 1016.2 |
| 20260507100115 | 57 | 325 | 2.0 | 12.0 | 0.00 | 0.00 | 0.00 | 40 | 1016.2 |
| 20260507094103 | 56 | 0 | 0.0 | 9.0 | 0.00 | 0.00 | 0.00 | 43 | 1015.9 |
| 20260507093604 | 56 | 178 | 2.0 | 9.0 | 0.00 | 0.00 | 0.00 | 44 | 1015.9 |
| 20260507093103 | 56 | 338 | 5.0 | 9.0 | 0.00 | 0.00 | 0.00 | 44 | 1016.0 |
| 20260507091605 | 55 | 279 | 3.0 | 5.0 | 0.00 | 0.00 | 0.00 | 41 | 1016.0 |
| 20260507084604 | 54 | 261 | 3.0 | 10.0 | 0.00 | 0.00 | 0.00 | 48 | 1015.9 |
| 20260507084104 | 54 | 279 | 3.0 | 10.0 | 0.00 | 0.00 | 0.00 | 47 | 1016.1 |
| 20260507083603 | 53 | 173 | 2.0 | 12.0 | 0.00 | 0.00 | 0.00 | 49 | 1015.9 |
| 20260507083103 | 53 | 217 | 5.0 | 12.0 | 0.00 | 0.00 | 0.00 | 48 | 1015.9 |
| 20260507081104 | 52 | 236 | 3.0 | 6.0 | 0.00 | 0.00 | 0.00 | 53 | 1015.7 |
| 20260507080605 | 52 | 207 | 1.0 | 5.0 | 0.00 | 0.00 | 0.00 | 53 | 1015.6 |
| 20260507080115 | 52 | 327 | 3.0 | 8.0 | 0.00 | 0.00 | 0.00 | 54 | 1015.6 |
| 20260507074604 | 51 | 36 | 2.0 | 8.0 | 0.00 | 0.00 | 0.00 | 56 | 1015.6 |
| 20260507074104 | 51 | 10 | 3.0 | 7.0 | 0.00 | 0.00 | 0.00 | 55 | 1015.4 |
| 20260507073604 | 51 | 309 | 1.0 | 8.0 | 0.00 | 0.00 | 0.00 | 60 | 1015.4 |
| 20260507073104 | 50 | 286 | 1.0 | 8.0 | 0.00 | 0.00 | 0.00 | 58 | 1015.5 |
| 20260507071104 | 49 | 268 | 2.0 | 5.0 | 0.00 | 0.00 | 0.00 | 63 | 1015.3 |
| 20260507064604 | 48 | 273 | 3.0 | 3.0 | 0.00 | 0.00 | 0.00 | 66 | 1015.4 |
| 20260507064104 | 48 | 208 | 2.0 | 3.0 | 0.00 | 0.00 | 0.00 | 67 | 1015.4 |
| 20260507063104 | 46 | 155 | 2.0 | 2.0 | 0.00 | 0.00 | 0.00 | 69 | 1015.3 |
| 20260507061104 | 44 | 147 | 1.0 | 2.0 | 0.00 | 0.00 | 0.00 | 72 | 1015.2 |
| 20260507054604 | 41 | 0 | 0.0 | 2.0 | 0.00 | 0.00 | 0.00 | 78 | 1015.2 |
| 20260507051104 | 39 | 0 | 0.0 | 0.0 | 0.00 | 0.00 | 0.00 | 86 | 1014.9 |
| 20260507050604 | 38 | 0 | 0.0 | 0.0 | 0.00 | 0.00 | 0.00 | 86 | 1014.9 |
| 20260507050115 | 37 | 0 | 0.0 | 0.0 | 0.00 | 0.00 | 0.00 | 87 | 1014.8 |
| 20260507044604 | 36 | 0 | 0.0 | 0.0 | 0.00 | 0.00 | 0.00 | 91 | 1014.6 |
| 20260507041104 | 31 | 0 | 0.0 | 1.0 | 0.00 | 0.00 | 0.00 | 89 | 1014.5 |
| 20260507040114 | 31 | 0 | 0.0 | 2.0 | 0.00 | 0.00 | 0.00 | 88 | 1014.4 |
| 20260507034605 | 31 | 352 | 1.0 | 1.0 | 0.00 | 0.00 | 0.00 | 87 | 1014.4 |
| 20260507034104 | 31 | 0 | 0.0 | 0.0 | 0.00 | 0.00 | 0.00 | 87 | 1014.3 |
| 20260507033103 | 31 | 0 | 0.0 | 2.0 | 0.00 | 0.00 | 0.00 | 85 | 1014.4 |
| 20260507031104 | 32 | 0 | 0.0 | 0.0 | 0.00 | 0.00 | 0.00 | 87 | 1014.4 |
| 20260507030115 | 32 | 0 | 0.0 | 1.0 | 0.00 | 0.00 | 0.00 | 89 | 1014.3 |
| 20260507024604 | 31 | 0 | 0.0 | 2.0 | 0.00 | 0.00 | 0.00 | 88 | 1014.1 |
| 20260507023604 | 31 | 352 | 1.0 | 1.0 | 0.00 | 0.00 | 0.00 | 87 | 1014.0 |
| 20260507023104 | 31 | 351 | 1.0 | 2.0 | 0.00 | 0.00 | 0.00 | 86 | 1014.0 |
| 20260507020604 | 31 | 352 | 1.0 | 2.0 | 0.00 | 0.00 | 0.00 | 85 | 1013.9 |
| 20260507020115 | 32 | 0 | 0.0 | 2.0 | 0.00 | 0.00 | 0.00 | 85 | 1014.0 |
| 20260507014105 | 32 | 351 | 0.0 | 2.0 | 0.00 | 0.00 | 0.00 | 85 | 1013.9 |
| 20260507013104 | 33 | 0 | 0.0 | 1.0 | 0.00 | 0.00 | 0.00 | 85 | 1013.9 |
| 20260507011604 | 32 | 351 | 1.0 | 1.0 | 0.00 | 0.00 | 0.00 | 85 | 1013.8 |
| 20260507010604 | 33 | 351 | 0.0 | 1.0 | 0.00 | 0.00 | 0.00 | 85 | 1013.7 |
| 20260507001103 | 35 | 0 | 0.0 | 2.0 | 0.00 | 0.00 | 0.00 | 79 | 1013.3 |
| 20260507000602 | 35 | 290 | 0.0 | 2.0 | 0.00 | 0.00 | 0.00 | 79 | 1013.3 |
| 20260506234102 | 37 | 0 | 0.0 | 2.0 | 0.00 | 0.00 | 0.00 | 73 | 1013.3 |
| 20260506233604 | 37 | 0 | 0.0 | 2.0 | 0.00 | 0.00 | 0.00 | 72 | 1013.1 |
| 20260506233104 | 38 | 0 | 0.0 | 2.0 | 0.00 | 0.00 | 0.00 | 71 | 1013.2 |
| 20260506231603 | 39 | 0 | 0.0 | 2.0 | 0.00 | 0.00 | 0.00 | 69 | 1013.1 |
| 20260506231103 | 39 | 0 | 0.0 | 2.0 | 0.00 | 0.00 | 0.00 | 69 | 1013.0 |
| 20260506230114 | 40 | 0 | 0.0 | 2.0 | 0.00 | 0.00 | 0.00 | 70 | 1012.9 |
| 20260506224604 | 41 | 280 | 1.0 | 2.0 | 0.00 | 0.00 | 0.00 | 66 | 1012.9 |
| 20260506224103 | 41 | 311 | 0.0 | 1.0 | 0.00 | 0.00 | 0.00 | 67 | 1012.9 |
| 20260506223603 | 41 | 311 | 0.0 | 2.0 | 0.00 | 0.00 | 0.00 | 66 | 1012.9 |
| 20260506223104 | 41 | 0 | 0.0 | 2.0 | 0.00 | 0.00 | 0.00 | 65 | 1012.9 |
| 20260506220604 | 42 | 326 | 0.0 | 3.0 | 0.00 | 0.00 | 0.00 | 63 | 1012.8 |
| 20260506214603 | 43 | 316 | 1.0 | 2.0 | 0.00 | 0.00 | 0.00 | 60 | 1012.6 |
| 20260506211103 | 43 | 283 | 1.0 | 5.0 | 0.00 | 0.00 | 0.00 | 59 | 1012.2 |
| 20260506210604 | 43 | 251 | 2.0 | 3.0 | 0.00 | 0.00 | 0.00 | 60 | 1012.2 |
| 20260506210114 | 43 | 262 | 2.0 | 3.0 | 0.00 | 0.00 | 0.00 | 60 | 1012.2 |
| 20260506204603 | 42 | 0 | 0.0 | 0.0 | 0.00 | 0.00 | 0.00 | 63 | 1012.2 |
| 20260506201604 | 44 | 352 | 1.0 | 1.0 | 0.00 | 0.00 | 0.00 | 58 | 1012.2 |
| 20260506200603 | 45 | 0 | 0.0 | 2.0 | 0.00 | 0.00 | 0.00 | 56 | 1012.2 |
| 20260506193104 | 48 | 340 | 0.0 | 3.0 | 0.00 | 0.00 | 0.00 | 49 | 1012.2 |
| 20260506191604 | 49 | 288 | 2.0 | 2.0 | 0.00 | 0.00 | 0.00 | 46 | 1011.9 |
| 20260506190114 | 50 | 326 | 0.0 | 3.0 | 0.00 | 0.00 | 0.00 | 45 | 1011.8 |
| 20260506183604 | 52 | 292 | 1.0 | 6.0 | 0.00 | 0.00 | 0.00 | 40 | 1011.5 |
| 20260506181604 | 53 | 298 | 2.0 | 7.0 | 0.00 | 0.00 | 0.00 | 40 | 1011.4 |
| 20260506181103 | 53 | 267 | 2.0 | 8.0 | 0.00 | 0.00 | 0.00 | 39 | 1011.3 |
| 20260506180603 | 53 | 281 | 5.0 | 10.0 | 0.00 | 0.00 | 0.00 | 38 | 1011.4 |
| 20260506180113 | 54 | 284 | 1.0 | 10.0 | 0.00 | 0.00 | 0.00 | 38 | 1011.4 |
| 20260506174103 | 55 | 285 | 3.0 | 12.0 | 0.00 | 0.00 | 0.00 | 35 | 1011.2 |
| 20260506171603 | 55 | 292 | 1.0 | 9.0 | 0.00 | 0.00 | 0.00 | 35 | 1011.1 |
| 20260506170115 | 56 | 333 | 6.0 | 12.0 | 0.00 | 0.00 | 0.00 | 35 | 1011.1 |
| 20260506163603 | 56 | 253 | 7.0 | 10.0 | 0.00 | 0.00 | 0.00 | 32 | 1011.0 |
| 20260506160604 | 57 | 326 | 5.0 | 14.0 | 0.00 | 0.00 | 0.00 | 31 | 1010.9 |
| 20260506160114 | 57 | 275 | 3.0 | 14.0 | 0.00 | 0.00 | 0.00 | 31 | 1010.9 |
| 20260506154103 | 57 | 294 | 8.0 | 8.0 | 0.00 | 0.00 | 0.00 | 30 | 1010.9 |
| 20260506153603 | 57 | 291 | 3.0 | 8.0 | 0.00 | 0.00 | 0.00 | 31 | 1010.9 |
| 20260506153103 | 57 | 282 | 3.0 | 12.0 | 0.00 | 0.00 | 0.00 | 30 | 1010.9 |
| 20260506151604 | 58 | 277 | 2.0 | 8.0 | 0.00 | 0.00 | 0.00 | 29 | 1011.0 |
| 20260506151103 | 58 | 277 | 5.0 | 9.0 | 0.00 | 0.00 | 0.00 | 29 | 1010.9 |
| 20260506150603 | 57 | 279 | 5.0 | 9.0 | 0.00 | 0.00 | 0.00 | 29 | 1010.9 |
| 20260506144603 | 57 | 247 | 7.0 | 13.0 | 0.00 | 0.00 | 0.00 | 29 | 1011.0 |
| 20260506144103 | 57 | 234 | 1.0 | 13.0 | 0.00 | 0.00 | 0.00 | 28 | 1011.1 |
| 20260506143104 | 56 | 263 | 2.0 | 15.0 | 0.00 | 0.00 | 0.00 | 29 | 1011.0 |
| 20260506140114 | 57 | 300 | 1.0 | 13.0 | 0.00 | 0.00 | 0.00 | 30 | 1011.1 |
| 20260506134604 | 57 | 268 | 7.0 | 13.0 | 0.00 | 0.00 | 0.00 | 29 | 1011.1 |
| 20260506134104 | 58 | 230 | 8.0 | 13.0 | 0.00 | 0.00 | 0.00 | 29 | 1011.1 |